Regional Weather Roundup
Issued by NWS

Home | Current Version | Previous Version | Text Only | Print | Product List | Glossary Off
Versions: 1 2 3 4 5 6 7 8 9 10 11 12 13 14 15 16 17 18 19 20 21 22 23 24 25 26 27 28 29 30 31 32 33 34 35 36 37 38 39 40 41 42 43 44 45 46 47 48 49 50

000
ASUS43 KLMK 032002
RWRKY
KENTUCKY REGIONAL WEATHER ROUNDUP
NATIONAL WEATHER SERVICE LOUISVILLE KY
300 PM EST SAT DEC 03 2016

NOTE "FAIR" INDICATES FEW OR NO CLOUDS BELOW 12,000 FEET
WITH NO SIGNIFICANT WEATHER AND/OR OBSTRUCTIONS TO VISIBILITY.

KYZ001>023-026-027-061>063-070>075-032100-
WESTERN AND SOUTH CENTRAL KENTUCKY

CITY           SKY/WX    TMP DP  RH WIND       PRES   REMARKS
PADUCAH        CLOUDY    44  30  57 E10       30.29F
HENDERSON      CLOUDY    45  28  53 E5        30.31F
OWENSBORO      CLOUDY    44  29  55 E7        30.32F
HOPKINSVILLE   CLOUDY    42  31  64 E6        30.30F
BOWLING GREEN  CLOUDY    44  31  60 E7        30.32F
GLASGOW        CLOUDY    42  32  68 E5        30.31F
$$

KYZ024-025-028>034-038-045-046-053-032100-
NORTH CENTRAL KENTUCKY

CITY           SKY/WX    TMP DP  RH WIND       PRES   REMARKS
LOUISVILLE/SDF CLOUDY    45  26  47 NW3       30.32F
LOUISVILLE/LOU CLOUDY    44  27  51 CALM      30.33F
FORT KNOX      CLOUDY    43  28  56 N3        30.29F
$$

KYZ035>037-039>044-047>052-055>060-089>105-032100-
NORTHEAST KENTUCKY

CITY           SKY/WX    TMP DP  RH WIND       PRES   REMARKS
LEXINGTON      CLOUDY    42  28  57 NE6       30.31F
COVINGTON      CLOUDY    41  30  65 W6        30.31F
FRANKFORT      CLOUDY    43  27  53 NW3       30.30F
$$

KYZ054-064>069-076>088-106>120-032100-
SOUTHEAST KENTUCKY

CITY           SKY/WX    TMP DP  RH WIND       PRES   REMARKS
JACKSON        CLOUDY    41  29  62 CALM      30.29F
LONDON         CLOUDY    42  28  57 N5        30.29F
SOMERSET       CLOUDY    41  30  65 NE3       30.32S
MIDDLESBORO    CLOUDY    42  31  63 NE5       30.29F
MONTICELLO     CLOUDY    41  30  65 N10       30.32F
$$




USA.gov is the U.S. government's official web portal to all federal, state and local government web resources and services.